Tracking 32139 objects as of 18-Nov-2025
HD Live streaming from Space Station
objects crossing your sky now

STARLINK-35135

Track STARLINK-35135 now!
10-day predictions
STARLINK-35135 is classified as:


NORAD ID: 65629
Int'l Code: 2025-210H
Perigee: 453.3 km
Apogee: 455.4 km
Inclination: 53.2 °
Period: 93.5 minutes
Semi major axis: 6825 km
RCS: Unknown
Launch date: September 18, 2025
Source: United States (US)
Launch site: AIR FORCE EASTERN TEST RANGE (AFETR)
Your satellite tracking list
Your tracking list is empty




NASA's NSSDC Master Catalog

Two Line Element Set (TLE):
1 65629U 25210H   25321.71099491  .00052920  00000-0  13231-2 0  9991
2 65629  53.1557 107.4257 0001519  98.9729 261.1448 15.39636887 10588
Source of the keplerian elements: AFSPC